owner,sensor,date,latitude,longitude,air_pressure(mBar),qcFlag 
WAVCIS,ioos:station:WAVCIS:CSI15:1,2011-02-01T00:00:00Z,28.8332,-90.8320,1012.27,11111222 
WAVCIS,ioos:station:WAVCIS:CSI15:1,2011-02-01T01:00:00Z,28.8332,-90.8320,1012.35,11111222 
WAVCIS,ioos:station:WAVCIS:CSI15:1,2011-02-01T02:00:00Z,28.8332,-90.8320,1012.43,11111222 
WAVCIS,ioos:station:WAVCIS:CSI15:1,2011-02-01T03:00:00Z,28.8332,-90.8320,1012.44,11111222 
WAVCIS,ioos:station:WAVCIS:CSI15:1,2011-02-01T04:00:00Z,28.8332,-90.8320,1011.99,11111222 
WAVCIS,ioos:station:WAVCIS:CSI15:1,2011-02-01T05:00:00Z,28.8332,-90.8320,1011.45,11111222 
WAVCIS,ioos:station:WAVCIS:CSI15:1,2011-02-01T06:00:00Z,28.8332,-90.8320,1010.92,11111222 
WAVCIS,ioos:station:WAVCIS:CSI15:1,2011-02-01T07:00:00Z,28.8332,-90.8320,1010.6,11111222 
WAVCIS,ioos:station:WAVCIS:CSI15:1,2011-02-01T08:00:00Z,28.8332,-90.8320,1010.08,11111222 
WAVCIS,ioos:station:WAVCIS:CSI15:1,2011-02-01T09:00:00Z,28.8332,-90.8320,1009.02,11111222 
WAVCIS,ioos:station:WAVCIS:CSI15:1,2011-02-01T10:00:00Z,28.8332,-90.8320,1008.13,11111222 
WAVCIS,ioos:station:WAVCIS:CSI15:1,2011-02-01T11:00:00Z,28.8332,-90.8320,1007.65,11111222 
WAVCIS,ioos:station:WAVCIS:CSI15:1,2011-02-01T12:00:00Z,28.8332,-90.8320,1007.64,11111222 
WAVCIS,ioos:station:WAVCIS:CSI15:1,2011-02-01T13:00:00Z,28.8332,-90.8320,1007.39,11111222 
WAVCIS,ioos:station:WAVCIS:CSI15:1,2011-02-01T14:00:00Z,28.8332,-90.8320,1007.65,11111222 
WAVCIS,ioos:station:WAVCIS:CSI15:1,2011-02-01T15:00:00Z,28.8332,-90.8320,1007.32,11111222 
WAVCIS,ioos:station:WAVCIS:CSI15:1,2011-02-01T16:00:00Z,28.8332,-90.8320,1007.298,11111222 
WAVCIS,ioos:station:WAVCIS:CSI15:1,2011-02-01T17:00:00Z,28.8332,-90.8320,1007.318,11111222 
WAVCIS,ioos:station:WAVCIS:CSI15:1,2011-02-01T18:00:00Z,28.8332,-90.8320,1006.465,11111222 
WAVCIS,ioos:station:WAVCIS:CSI15:1,2011-02-01T19:00:00Z,28.8332,-90.8320,1004.979,11111222 
WAVCIS,ioos:station:WAVCIS:CSI15:1,2011-02-01T20:00:00Z,28.8332,-90.8320,1004.465,11111222 
WAVCIS,ioos:station:WAVCIS:CSI15:1,2011-02-01T21:00:00Z,28.8332,-90.8320,1005.438,11111222 
WAVCIS,ioos:station:WAVCIS:CSI15:1,2011-02-01T22:00:00Z,28.8332,-90.8320,1007.93,11111222 
WAVCIS,ioos:station:WAVCIS:CSI15:1,2011-02-01T23:00:00Z,28.8332,-90.8320,1009.84,11111222 
WAVCIS,ioos:station:WAVCIS:CSI15:1,2011-02-02T00:00:00Z,28.8332,-90.8320,1010.3,11111222 
WAVCIS,ioos:station:WAVCIS:CSI15:1,2011-02-02T01:00:00Z,28.8332,-90.8320,1011.02,11111222 
WAVCIS,ioos:station:WAVCIS:CSI15:1,2011-02-02T02:00:00Z,28.8332,-90.8320,1012.28,11111222 
WAVCIS,ioos:station:WAVCIS:CSI15:1,2011-02-02T03:00:00Z,28.8332,-90.8320,1013.78,11111222 
WAVCIS,ioos:station:WAVCIS:CSI15:1,2011-02-02T04:00:00Z,28.8332,-90.8320,1014.73,11111222 
WAVCIS,ioos:station:WAVCIS:CSI15:1,2011-02-02T05:00:00Z,28.8332,-90.8320,1015.8,11111222 
WAVCIS,ioos:station:WAVCIS:CSI15:1,2011-02-02T06:00:00Z,28.8332,-90.8320,1016.37,11111222 
WAVCIS,ioos:station:WAVCIS:CSI15:1,2011-02-02T07:00:00Z,28.8332,-90.8320,1016.85,11111222 
WAVCIS,ioos:station:WAVCIS:CSI15:1,2011-02-02T08:00:00Z,28.8332,-90.8320,1016.54,11111222 
WAVCIS,ioos:station:WAVCIS:CSI15:1,2011-02-02T09:00:00Z,28.8332,-90.8320,1016.46,11111222 
WAVCIS,ioos:station:WAVCIS:CSI15:1,2011-02-02T10:00:00Z,28.8332,-90.8320,1016.7,11111222 
WAVCIS,ioos:station:WAVCIS:CSI15:1,2011-02-02T11:00:00Z,28.8332,-90.8320,1017.89,11111222 
WAVCIS,ioos:station:WAVCIS:CSI15:1,2011-02-02T12:00:00Z,28.8332,-90.8320,1019.05,11111222 
WAVCIS,ioos:station:WAVCIS:CSI15:1,2011-02-02T13:00:00Z,28.8332,-90.8320,1020.22,11111222 
WAVCIS,ioos:station:WAVCIS:CSI15:1,2011-02-02T14:00:00Z,28.8332,-90.8320,1020.65,11111222 
WAVCIS,ioos:station:WAVCIS:CSI15:1,2011-02-02T15:00:00Z,28.8332,-90.8320,1022.57,11111222 
WAVCIS,ioos:station:WAVCIS:CSI15:1,2011-02-02T16:00:00Z,28.8332,-90.8320,1023.31,11111222 
WAVCIS,ioos:station:WAVCIS:CSI15:1,2011-02-02T17:00:00Z,28.8332,-90.8320,1023.56,11111222 
WAVCIS,ioos:station:WAVCIS:CSI15:1,2011-02-02T18:00:00Z,28.8332,-90.8320,1022.72,11111222 
WAVCIS,ioos:station:WAVCIS:CSI15:1,2011-02-02T19:00:00Z,28.8332,-90.8320,1021.33,11111222 
WAVCIS,ioos:station:WAVCIS:CSI15:1,2011-02-02T20:00:00Z,28.8332,-90.8320,1020.8,11111222 
WAVCIS,ioos:station:WAVCIS:CSI15:1,2011-02-02T21:00:00Z,28.8332,-90.8320,1020.86,11111222 
WAVCIS,ioos:station:WAVCIS:CSI15:1,2011-02-02T22:00:00Z,28.8332,-90.8320,1021.16,11111222 
WAVCIS,ioos:station:WAVCIS:CSI15:1,2011-02-02T23:00:00Z,28.8332,-90.8320,1021.96,11111222 
WAVCIS,ioos:station:WAVCIS:CSI15:1,2011-02-03T00:00:00Z,28.8332,-90.8320,1022.02,11111222 
WAVCIS,ioos:station:WAVCIS:CSI15:1,2011-02-03T01:00:00Z,28.8332,-90.8320,1021.76,11111222 
WAVCIS,ioos:station:WAVCIS:CSI15:1,2011-02-03T02:00:00Z,28.8332,-90.8320,1023.3,11111222 
WAVCIS,ioos:station:WAVCIS:CSI15:1,2011-02-03T03:00:00Z,28.8332,-90.8320,1023.68,11111222 
WAVCIS,ioos:station:WAVCIS:CSI15:1,2011-02-03T04:00:00Z,28.8332,-90.8320,1023.12,11111222 
WAVCIS,ioos:station:WAVCIS:CSI15:1,2011-02-03T05:00:00Z,28.8332,-90.8320,1023.83,11111222 
WAVCIS,ioos:station:WAVCIS:CSI15:1,2011-02-03T06:00:00Z,28.8332,-90.8320,1023.54,11111222 
WAVCIS,ioos:station:WAVCIS:CSI15:1,2011-02-03T07:00:00Z,28.8332,-90.8320,1023.04,11111222 
WAVCIS,ioos:station:WAVCIS:CSI15:1,2011-02-03T08:00:00Z,28.8332,-90.8320,1023.68,11111222 
WAVCIS,ioos:station:WAVCIS:CSI15:1,2011-02-03T09:00:00Z,28.8332,-90.8320,1022.65,11111222 
WAVCIS,ioos:station:WAVCIS:CSI15:1,2011-02-03T10:00:00Z,28.8332,-90.8320,1021.92,11111222 
WAVCIS,ioos:station:WAVCIS:CSI15:1,2011-02-03T11:00:00Z,28.8332,-90.8320,1022.54,11111222 
WAVCIS,ioos:station:WAVCIS:CSI15:1,2011-02-03T12:00:00Z,28.8332,-90.8320,1024.06,11111222 
WAVCIS,ioos:station:WAVCIS:CSI15:1,2011-02-03T13:00:00Z,28.8332,-90.8320,1024.04,11111222 
WAVCIS,ioos:station:WAVCIS:CSI15:1,2011-02-03T14:00:00Z,28.8332,-90.8320,1023.96,11111222 
WAVCIS,ioos:station:WAVCIS:CSI15:1,2011-02-03T15:00:00Z,28.8332,-90.8320,1024.42,11111222 
WAVCIS,ioos:station:WAVCIS:CSI15:1,2011-02-03T16:00:00Z,28.8332,-90.8320,1024.52,11111222 
WAVCIS,ioos:station:WAVCIS:CSI15:1,2011-02-03T17:00:00Z,28.8332,-90.8320,1023.56,11111222 
WAVCIS,ioos:station:WAVCIS:CSI15:1,2011-02-03T18:00:00Z,28.8332,-90.8320,1023.72,11111222 
WAVCIS,ioos:station:WAVCIS:CSI15:1,2011-02-03T19:00:00Z,28.8332,-90.8320,1022.64,11111222 
WAVCIS,ioos:station:WAVCIS:CSI15:1,2011-02-03T20:00:00Z,28.8332,-90.8320,1020.82,11111222 
WAVCIS,ioos:station:WAVCIS:CSI15:1,2011-02-03T21:00:00Z,28.8332,-90.8320,1020.54,11111222 
WAVCIS,ioos:station:WAVCIS:CSI15:1,2011-02-03T22:00:00Z,28.8332,-90.8320,1019.9,11111222 
WAVCIS,ioos:station:WAVCIS:CSI15:1,2011-02-03T23:00:00Z,28.8332,-90.8320,1020.08,11111222 
WAVCIS,ioos:station:WAVCIS:CSI15:1,2011-02-04T00:00:00Z,28.8332,-90.8320,1020.95,11111222 
WAVCIS,ioos:station:WAVCIS:CSI15:1,2011-02-04T01:00:00Z,28.8332,-90.8320,1020.54,11111222 
WAVCIS,ioos:station:WAVCIS:CSI15:1,2011-02-04T02:00:00Z,28.8332,-90.8320,1020.1,11111222 
WAVCIS,ioos:station:WAVCIS:CSI15:1,2011-02-04T03:00:00Z,28.8332,-90.8320,1019.53,11111222 
WAVCIS,ioos:station:WAVCIS:CSI15:1,2011-02-04T04:00:00Z,28.8332,-90.8320,1018.41,11111222 
WAVCIS,ioos:station:WAVCIS:CSI15:1,2011-02-04T05:00:00Z,28.8332,-90.8320,1019.24,11111222 
WAVCIS,ioos:station:WAVCIS:CSI15:1,2011-02-04T06:00:00Z,28.8332,-90.8320,1018.16,11111222 
WAVCIS,ioos:station:WAVCIS:CSI15:1,2011-02-04T07:00:00Z,28.8332,-90.8320,1017.79,11111222 
WAVCIS,ioos:station:WAVCIS:CSI15:1,2011-02-04T08:00:00Z,28.8332,-90.8320,1016.94,11111222 
WAVCIS,ioos:station:WAVCIS:CSI15:1,2011-02-04T09:00:00Z,28.8332,-90.8320,1014.65,11111222 
WAVCIS,ioos:station:WAVCIS:CSI15:1,2011-02-04T10:00:00Z,28.8332,-90.8320,1014.75,11111222 
WAVCIS,ioos:station:WAVCIS:CSI15:1,2011-02-04T11:00:00Z,28.8332,-90.8320,1015.3,11111222 
WAVCIS,ioos:station:WAVCIS:CSI15:1,2011-02-04T12:00:00Z,28.8332,-90.8320,1014.55,11111222 
WAVCIS,ioos:station:WAVCIS:CSI15:1,2011-02-04T13:00:00Z,28.8332,-90.8320,1015.12,11111222 
WAVCIS,ioos:station:WAVCIS:CSI15:1,2011-02-04T14:00:00Z,28.8332,-90.8320,1015.24,11111222 
WAVCIS,ioos:station:WAVCIS:CSI15:1,2011-02-04T15:00:00Z,28.8332,-90.8320,1015.8,11111222 
WAVCIS,ioos:station:WAVCIS:CSI15:1,2011-02-04T16:00:00Z,28.8332,-90.8320,1015.86,11111222 
WAVCIS,ioos:station:WAVCIS:CSI15:1,2011-02-04T17:00:00Z,28.8332,-90.8320,1015.66,11111222 
WAVCIS,ioos:station:WAVCIS:CSI15:1,2011-02-04T18:00:00Z,28.8332,-90.8320,1014.98,11111222 
WAVCIS,ioos:station:WAVCIS:CSI15:1,2011-02-04T19:00:00Z,28.8332,-90.8320,1014.12,11111222 
WAVCIS,ioos:station:WAVCIS:CSI15:1,2011-02-04T20:00:00Z,28.8332,-90.8320,1013.6,11111222 
WAVCIS,ioos:station:WAVCIS:CSI15:1,2011-02-04T21:00:00Z,28.8332,-90.8320,1013.4,11111222 
WAVCIS,ioos:station:WAVCIS:CSI15:1,2011-02-04T22:00:00Z,28.8332,-90.8320,1013.46,11111222 
WAVCIS,ioos:station:WAVCIS:CSI15:1,2011-02-04T23:00:00Z,28.8332,-90.8320,1013.69,11111222 
WAVCIS,ioos:station:WAVCIS:CSI15:1,2011-02-05T00:00:00Z,28.8332,-90.8320,1013.82,11111222 
WAVCIS,ioos:station:WAVCIS:CSI15:1,2011-02-05T01:00:00Z,28.8332,-90.8320,1014.54,11111222 
WAVCIS,ioos:station:WAVCIS:CSI15:1,2011-02-05T02:00:00Z,28.8332,-90.8320,1014.87,11111222 
WAVCIS,ioos:station:WAVCIS:CSI15:1,2011-02-05T03:00:00Z,28.8332,-90.8320,1014.91,11111222 
WAVCIS,ioos:station:WAVCIS:CSI15:1,2011-02-05T04:00:00Z,28.8332,-90.8320,1015.03,11111222 
WAVCIS,ioos:station:WAVCIS:CSI15:1,2011-02-05T05:00:00Z,28.8332,-90.8320,1015.37,11111222 
WAVCIS,ioos:station:WAVCIS:CSI15:1,2011-02-05T06:00:00Z,28.8332,-90.8320,1015.64,11111222 
WAVCIS,ioos:station:WAVCIS:CSI15:1,2011-02-05T07:00:00Z,28.8332,-90.8320,1015.51,11111222 
WAVCIS,ioos:station:WAVCIS:CSI15:1,2011-02-05T08:00:00Z,28.8332,-90.8320,1015.34,11111222 
WAVCIS,ioos:station:WAVCIS:CSI15:1,2011-02-05T09:00:00Z,28.8332,-90.8320,1015.17,11111222 
WAVCIS,ioos:station:WAVCIS:CSI15:1,2011-02-05T10:00:00Z,28.8332,-90.8320,1015.39,11111222 
WAVCIS,ioos:station:WAVCIS:CSI15:1,2011-02-05T11:00:00Z,28.8332,-90.8320,1015.29,11111222 
WAVCIS,ioos:station:WAVCIS:CSI15:1,2011-02-05T12:00:00Z,28.8332,-90.8320,1015.34,11111222 
WAVCIS,ioos:station:WAVCIS:CSI15:1,2011-02-05T13:00:00Z,28.8332,-90.8320,1015.46,11111222 
WAVCIS,ioos:station:WAVCIS:CSI15:1,2011-02-05T14:00:00Z,28.8332,-90.8320,1015.8,11111222 
WAVCIS,ioos:station:WAVCIS:CSI15:1,2011-02-05T15:00:00Z,28.8332,-90.8320,1016.42,11111222 
WAVCIS,ioos:station:WAVCIS:CSI15:1,2011-02-05T16:00:00Z,28.8332,-90.8320,1017.24,11111222 
WAVCIS,ioos:station:WAVCIS:CSI15:1,2011-02-05T17:00:00Z,28.8332,-90.8320,1017.02,11111222 
WAVCIS,ioos:station:WAVCIS:CSI15:1,2011-02-05T18:00:00Z,28.8332,-90.8320,1016.37,11111222 
WAVCIS,ioos:station:WAVCIS:CSI15:1,2011-02-05T19:00:00Z,28.8332,-90.8320,1015.17,11111222 
WAVCIS,ioos:station:WAVCIS:CSI15:1,2011-02-05T20:00:00Z,28.8332,-90.8320,1014.29,11111222 
WAVCIS,ioos:station:WAVCIS:CSI15:1,2011-02-05T21:00:00Z,28.8332,-90.8320,1013.7,11111222 
WAVCIS,ioos:station:WAVCIS:CSI15:1,2011-02-05T22:00:00Z,28.8332,-90.8320,1013.35,11111222 
WAVCIS,ioos:station:WAVCIS:CSI15:1,2011-02-05T23:00:00Z,28.8332,-90.8320,1013.39,11111222 
WAVCIS,ioos:station:WAVCIS:CSI15:1,2011-02-06T00:00:00Z,28.8332,-90.8320,1013.55,11111222 
WAVCIS,ioos:station:WAVCIS:CSI15:1,2011-02-06T01:00:00Z,28.8332,-90.8320,1013.56,11111222 
WAVCIS,ioos:station:WAVCIS:CSI15:1,2011-02-06T02:00:00Z,28.8332,-90.8320,1013.83,11111222 
WAVCIS,ioos:station:WAVCIS:CSI15:1,2011-02-06T03:00:00Z,28.8332,-90.8320,1014.19,11111222 
WAVCIS,ioos:station:WAVCIS:CSI15:1,2011-02-06T04:00:00Z,28.8332,-90.8320,1013.87,11111222 
WAVCIS,ioos:station:WAVCIS:CSI15:1,2011-02-06T05:00:00Z,28.8332,-90.8320,1013.65,11111222 
WAVCIS,ioos:station:WAVCIS:CSI15:1,2011-02-06T06:00:00Z,28.8332,-90.8320,1013.49,11111222 
WAVCIS,ioos:station:WAVCIS:CSI15:1,2011-02-06T07:00:00Z,28.8332,-90.8320,1013.44,11111222 
WAVCIS,ioos:station:WAVCIS:CSI15:1,2011-02-06T08:00:00Z,28.8332,-90.8320,1013.34,11111222 
WAVCIS,ioos:station:WAVCIS:CSI15:1,2011-02-06T09:00:00Z,28.8332,-90.8320,1013.01,11111222 
WAVCIS,ioos:station:WAVCIS:CSI15:1,2011-02-06T10:00:00Z,28.8332,-90.8320,1012.23,11111222 
WAVCIS,ioos:station:WAVCIS:CSI15:1,2011-02-06T11:00:00Z,28.8332,-90.8320,1012.46,11111222 
WAVCIS,ioos:station:WAVCIS:CSI15:1,2011-02-06T12:00:00Z,28.8332,-90.8320,1012.91,11111222 
WAVCIS,ioos:station:WAVCIS:CSI15:1,2011-02-06T13:00:00Z,28.8332,-90.8320,1013.14,11111222 
WAVCIS,ioos:station:WAVCIS:CSI15:1,2011-02-06T14:00:00Z,28.8332,-90.8320,1013.91,11111222 
WAVCIS,ioos:station:WAVCIS:CSI15:1,2011-02-06T15:00:00Z,28.8332,-90.8320,1014.79,11111222 
WAVCIS,ioos:station:WAVCIS:CSI15:1,2011-02-06T16:00:00Z,28.8332,-90.8320,1015.27,11111222 
WAVCIS,ioos:station:WAVCIS:CSI15:1,2011-02-06T17:00:00Z,28.8332,-90.8320,1014.98,11111222 
WAVCIS,ioos:station:WAVCIS:CSI15:1,2011-02-06T18:00:00Z,28.8332,-90.8320,1014.17,11111222 
WAVCIS,ioos:station:WAVCIS:CSI15:1,2011-02-06T19:00:00Z,28.8332,-90.8320,1013.5,11111222 
WAVCIS,ioos:station:WAVCIS:CSI15:1,2011-02-06T20:00:00Z,28.8332,-90.8320,1012.79,11111222 
WAVCIS,ioos:station:WAVCIS:CSI15:1,2011-02-06T21:00:00Z,28.8332,-90.8320,1012.63,11111222 
WAVCIS,ioos:station:WAVCIS:CSI15:1,2011-02-06T22:00:00Z,28.8332,-90.8320,1012.5,11111222 
WAVCIS,ioos:station:WAVCIS:CSI15:1,2011-02-06T23:00:00Z,28.8332,-90.8320,1012.52,11111222 
WAVCIS,ioos:station:WAVCIS:CSI15:1,2011-02-07T00:00:00Z,28.8332,-90.8320,1012.63,11111222 
WAVCIS,ioos:station:WAVCIS:CSI15:1,2011-02-07T01:00:00Z,28.8332,-90.8320,1012.68,11111222 
WAVCIS,ioos:station:WAVCIS:CSI15:1,2011-02-07T02:00:00Z,28.8332,-90.8320,1012.82,11111222 
WAVCIS,ioos:station:WAVCIS:CSI15:1,2011-02-07T03:00:00Z,28.8332,-90.8320,1012.9,11111222 
WAVCIS,ioos:station:WAVCIS:CSI15:1,2011-02-07T04:00:00Z,28.8332,-90.8320,1013.01,11111222 
WAVCIS,ioos:station:WAVCIS:CSI15:1,2011-02-07T05:00:00Z,28.8332,-90.8320,1012.63,11111222 
WAVCIS,ioos:station:WAVCIS:CSI15:1,2011-02-07T06:00:00Z,28.8332,-90.8320,1012.26,11111222 
WAVCIS,ioos:station:WAVCIS:CSI15:1,2011-02-07T07:00:00Z,28.8332,-90.8320,1011.17,11111222 
WAVCIS,ioos:station:WAVCIS:CSI15:1,2011-02-07T08:00:00Z,28.8332,-90.8320,1011.3,11111222 
WAVCIS,ioos:station:WAVCIS:CSI15:1,2011-02-07T09:00:00Z,28.8332,-90.8320,1010.46,11111222 
WAVCIS,ioos:station:WAVCIS:CSI15:1,2011-02-07T10:00:00Z,28.8332,-90.8320,1010.67,11111222 
WAVCIS,ioos:station:WAVCIS:CSI15:1,2011-02-07T11:00:00Z,28.8332,-90.8320,1010.77,11111222 
WAVCIS,ioos:station:WAVCIS:CSI15:1,2011-02-07T12:00:00Z,28.8332,-90.8320,1010.76,11111222 
WAVCIS,ioos:station:WAVCIS:CSI15:1,2011-02-07T13:00:00Z,28.8332,-90.8320,1011.63,11111222 
WAVCIS,ioos:station:WAVCIS:CSI15:1,2011-02-07T14:00:00Z,28.8332,-90.8320,1012.73,11111222 
WAVCIS,ioos:station:WAVCIS:CSI15:1,2011-02-07T15:00:00Z,28.8332,-90.8320,1013.78,11111222 
WAVCIS,ioos:station:WAVCIS:CSI15:1,2011-02-07T16:00:00Z,28.8332,-90.8320,1015.38,11111222 
WAVCIS,ioos:station:WAVCIS:CSI15:1,2011-02-07T17:00:00Z,28.8332,-90.8320,1015.72,11111222 
WAVCIS,ioos:station:WAVCIS:CSI15:1,2011-02-07T18:00:00Z,28.8332,-90.8320,1015.62,11111222 
WAVCIS,ioos:station:WAVCIS:CSI15:1,2011-02-07T19:00:00Z,28.8332,-90.8320,1016.01,11111222 
WAVCIS,ioos:station:WAVCIS:CSI15:1,2011-02-07T20:00:00Z,28.8332,-90.8320,1016.11,11111222 
WAVCIS,ioos:station:WAVCIS:CSI15:1,2011-02-07T21:00:00Z,28.8332,-90.8320,1015.95,11111222 
WAVCIS,ioos:station:WAVCIS:CSI15:1,2011-02-07T22:00:00Z,28.8332,-90.8320,1016.89,11111222 
WAVCIS,ioos:station:WAVCIS:CSI15:1,2011-02-07T23:00:00Z,28.8332,-90.8320,1018.01,11111222 
WAVCIS,ioos:station:WAVCIS:CSI15:1,2011-02-08T00:00:00Z,28.8332,-90.8320,1018.41,11111222 
WAVCIS,ioos:station:WAVCIS:CSI15:1,2011-02-08T01:00:00Z,28.8332,-90.8320,1019.16,11111222 
WAVCIS,ioos:station:WAVCIS:CSI15:1,2011-02-08T02:00:00Z,28.8332,-90.8320,1020.25,11111222 
WAVCIS,ioos:station:WAVCIS:CSI15:1,2011-02-08T03:00:00Z,28.8332,-90.8320,1020.29,11111222 
WAVCIS,ioos:station:WAVCIS:CSI15:1,2011-02-08T04:00:00Z,28.8332,-90.8320,1020.52,11111222 
WAVCIS,ioos:station:WAVCIS:CSI15:1,2011-02-08T05:00:00Z,28.8332,-90.8320,1020.51,11111222 
WAVCIS,ioos:station:WAVCIS:CSI15:1,2011-02-08T06:00:00Z,28.8332,-90.8320,1020.83,11111222 
WAVCIS,ioos:station:WAVCIS:CSI15:1,2011-02-08T07:00:00Z,28.8332,-90.8320,1020.97,11111222 
WAVCIS,ioos:station:WAVCIS:CSI15:1,2011-02-08T08:00:00Z,28.8332,-90.8320,1020.76,11111222 
WAVCIS,ioos:station:WAVCIS:CSI15:1,2011-02-08T09:00:00Z,28.8332,-90.8320,1021.12,11111222 
WAVCIS,ioos:station:WAVCIS:CSI15:1,2011-02-08T10:00:00Z,28.8332,-90.8320,1021.11,11111222 
WAVCIS,ioos:station:WAVCIS:CSI15:1,2011-02-08T11:00:00Z,28.8332,-90.8320,1021.0,11111222 
WAVCIS,ioos:station:WAVCIS:CSI15:1,2011-02-08T12:00:00Z,28.8332,-90.8320,1022.03,11111222 
WAVCIS,ioos:station:WAVCIS:CSI15:1,2011-02-08T13:00:00Z,28.8332,-90.8320,1022.62,11111222 
WAVCIS,ioos:station:WAVCIS:CSI15:1,2011-02-08T14:00:00Z,28.8332,-90.8320,1023.57,11111222 
WAVCIS,ioos:station:WAVCIS:CSI15:1,2011-02-08T15:00:00Z,28.8332,-90.8320,1024.08,11111222 
WAVCIS,ioos:station:WAVCIS:CSI15:1,2011-02-08T16:00:00Z,28.8332,-90.8320,1024.07,11111222 
WAVCIS,ioos:station:WAVCIS:CSI15:1,2011-02-08T17:00:00Z,28.8332,-90.8320,1023.67,11111222 
WAVCIS,ioos:station:WAVCIS:CSI15:1,2011-02-08T18:00:00Z,28.8332,-90.8320,1023.5,11111222 
WAVCIS,ioos:station:WAVCIS:CSI15:1,2011-02-08T19:00:00Z,28.8332,-90.8320,1022.44,11111222 
WAVCIS,ioos:station:WAVCIS:CSI15:1,2011-02-08T20:00:00Z,28.8332,-90.8320,1020.95,11111222 
WAVCIS,ioos:station:WAVCIS:CSI15:1,2011-02-08T21:00:00Z,28.8332,-90.8320,1020.3,11111222 
WAVCIS,ioos:station:WAVCIS:CSI15:1,2011-02-08T22:00:00Z,28.8332,-90.8320,1019.78,11111222 
WAVCIS,ioos:station:WAVCIS:CSI15:1,2011-02-08T23:00:00Z,28.8332,-90.8320,1019.34,11111222 
WAVCIS,ioos:station:WAVCIS:CSI15:1,2011-02-09T00:00:00Z,28.8332,-90.8320,1018.93,11111222 
WAVCIS,ioos:station:WAVCIS:CSI15:1,2011-02-09T01:00:00Z,28.8332,-90.8320,1018.24,11111222 
WAVCIS,ioos:station:WAVCIS:CSI15:1,2011-02-09T02:00:00Z,28.8332,-90.8320,1018.82,11111222 
WAVCIS,ioos:station:WAVCIS:CSI15:1,2011-02-09T03:00:00Z,28.8332,-90.8320,1019.04,11111222 
WAVCIS,ioos:station:WAVCIS:CSI15:1,2011-02-09T04:00:00Z,28.8332,-90.8320,1018.78,11111222 
WAVCIS,ioos:station:WAVCIS:CSI15:1,2011-02-09T05:00:00Z,28.8332,-90.8320,1018.34,11111222 
WAVCIS,ioos:station:WAVCIS:CSI15:1,2011-02-09T06:00:00Z,28.8332,-90.8320,1018.07,11111222 
WAVCIS,ioos:station:WAVCIS:CSI15:1,2011-02-09T07:00:00Z,28.8332,-90.8320,1017.4,11111222 
WAVCIS,ioos:station:WAVCIS:CSI15:1,2011-02-09T08:00:00Z,28.8332,-90.8320,1016.91,11111222 
WAVCIS,ioos:station:WAVCIS:CSI15:1,2011-02-09T09:00:00Z,28.8332,-90.8320,1016.99,11111222 
WAVCIS,ioos:station:WAVCIS:CSI15:1,2011-02-09T10:00:00Z,28.8332,-90.8320,1017.34,11111222 
WAVCIS,ioos:station:WAVCIS:CSI15:1,2011-02-09T11:00:00Z,28.8332,-90.8320,1015.82,11111222 
WAVCIS,ioos:station:WAVCIS:CSI15:1,2011-02-09T12:00:00Z,28.8332,-90.8320,1016.15,11111222 
WAVCIS,ioos:station:WAVCIS:CSI15:1,2011-02-09T13:00:00Z,28.8332,-90.8320,1016.67,11111222 
WAVCIS,ioos:station:WAVCIS:CSI15:1,2011-02-09T14:00:00Z,28.8332,-90.8320,1017.5,11111222 
WAVCIS,ioos:station:WAVCIS:CSI15:1,2011-02-09T15:00:00Z,28.8332,-90.8320,1017.38,11111222 
WAVCIS,ioos:station:WAVCIS:CSI15:1,2011-02-09T16:00:00Z,28.8332,-90.8320,1017.15,11111222 
WAVCIS,ioos:station:WAVCIS:CSI15:1,2011-02-09T17:00:00Z,28.8332,-90.8320,1016.18,11111222 
WAVCIS,ioos:station:WAVCIS:CSI15:1,2011-02-09T18:00:00Z,28.8332,-90.8320,1015.49,11111222 
WAVCIS,ioos:station:WAVCIS:CSI15:1,2011-02-09T19:00:00Z,28.8332,-90.8320,1014.03,11111222 
WAVCIS,ioos:station:WAVCIS:CSI15:1,2011-02-09T20:00:00Z,28.8332,-90.8320,1012.13,11111222 
WAVCIS,ioos:station:WAVCIS:CSI15:1,2011-02-09T21:00:00Z,28.8332,-90.8320,1011.05,11111222 
WAVCIS,ioos:station:WAVCIS:CSI15:1,2011-02-09T22:00:00Z,28.8332,-90.8320,1009.78,11111222 
WAVCIS,ioos:station:WAVCIS:CSI15:1,2011-02-09T23:00:00Z,28.8332,-90.8320,1010.26,11111222 
WAVCIS,ioos:station:WAVCIS:CSI15:1,2011-02-10T00:00:00Z,28.8332,-90.8320,1010.14,11111222 
WAVCIS,ioos:station:WAVCIS:CSI15:1,2011-02-10T01:00:00Z,28.8332,-90.8320,1011.42,11111222 
WAVCIS,ioos:station:WAVCIS:CSI15:1,2011-02-10T02:00:00Z,28.8332,-90.8320,1012.66,11111222 
WAVCIS,ioos:station:WAVCIS:CSI15:1,2011-02-10T03:00:00Z,28.8332,-90.8320,1013.54,11111222 
WAVCIS,ioos:station:WAVCIS:CSI15:1,2011-02-10T04:00:00Z,28.8332,-90.8320,1014.47,11111222 
WAVCIS,ioos:station:WAVCIS:CSI15:1,2011-02-10T05:00:00Z,28.8332,-90.8320,1014.66,11111222 
WAVCIS,ioos:station:WAVCIS:CSI15:1,2011-02-10T06:00:00Z,28.8332,-90.8320,1014.79,11111222 
WAVCIS,ioos:station:WAVCIS:CSI15:1,2011-02-10T07:00:00Z,28.8332,-90.8320,1015.7,11111222 
WAVCIS,ioos:station:WAVCIS:CSI15:1,2011-02-10T08:00:00Z,28.8332,-90.8320,1015.68,11111222 
WAVCIS,ioos:station:WAVCIS:CSI15:1,2011-02-10T09:00:00Z,28.8332,-90.8320,1016.08,11111222 
WAVCIS,ioos:station:WAVCIS:CSI15:1,2011-02-10T10:00:00Z,28.8332,-90.8320,1016.74,11111222 
WAVCIS,ioos:station:WAVCIS:CSI15:1,2011-02-10T11:00:00Z,28.8332,-90.8320,1016.97,11111222 
WAVCIS,ioos:station:WAVCIS:CSI15:1,2011-02-10T12:00:00Z,28.8332,-90.8320,1017.6,11111222 
WAVCIS,ioos:station:WAVCIS:CSI15:1,2011-02-10T13:00:00Z,28.8332,-90.8320,1018.44,11111222 
WAVCIS,ioos:station:WAVCIS:CSI15:1,2011-02-10T14:00:00Z,28.8332,-90.8320,1019.06,11111222 
WAVCIS,ioos:station:WAVCIS:CSI15:1,2011-02-10T15:00:00Z,28.8332,-90.8320,1020.06,11111222 
WAVCIS,ioos:station:WAVCIS:CSI15:1,2011-02-10T16:00:00Z,28.8332,-90.8320,1020.18,11111222 
WAVCIS,ioos:station:WAVCIS:CSI15:1,2011-02-10T17:00:00Z,28.8332,-90.8320,1020.3,11111222 
WAVCIS,ioos:station:WAVCIS:CSI15:1,2011-02-10T18:00:00Z,28.8332,-90.8320,1020.19,11111222 
WAVCIS,ioos:station:WAVCIS:CSI15:1,2011-02-10T19:00:00Z,28.8332,-90.8320,1019.65,11111222 
WAVCIS,ioos:station:WAVCIS:CSI15:1,2011-02-10T20:00:00Z,28.8332,-90.8320,1019.2,11111222 
WAVCIS,ioos:station:WAVCIS:CSI15:1,2011-02-10T21:00:00Z,28.8332,-90.8320,1018.88,11111222 
WAVCIS,ioos:station:WAVCIS:CSI15:1,2011-02-10T22:00:00Z,28.8332,-90.8320,1019.1,11111222 
WAVCIS,ioos:station:WAVCIS:CSI15:1,2011-02-10T23:00:00Z,28.8332,-90.8320,1019.24,11111222 
WAVCIS,ioos:station:WAVCIS:CSI15:1,2011-02-11T00:00:00Z,28.8332,-90.8320,1019.68,11111222 
WAVCIS,ioos:station:WAVCIS:CSI15:1,2011-02-11T01:00:00Z,28.8332,-90.8320,1019.88,11111222 
WAVCIS,ioos:station:WAVCIS:CSI15:1,2011-02-11T02:00:00Z,28.8332,-90.8320,1020.32,11111222 
WAVCIS,ioos:station:WAVCIS:CSI15:1,2011-02-11T03:00:00Z,28.8332,-90.8320,1020.52,11111222 
WAVCIS,ioos:station:WAVCIS:CSI15:1,2011-02-11T04:00:00Z,28.8332,-90.8320,1020.85,11111222 
WAVCIS,ioos:station:WAVCIS:CSI15:1,2011-02-11T05:00:00Z,28.8332,-90.8320,1020.68,11111222 
WAVCIS,ioos:station:WAVCIS:CSI15:1,2011-02-11T06:00:00Z,28.8332,-90.8320,1020.76,11111222 
WAVCIS,ioos:station:WAVCIS:CSI15:1,2011-02-11T07:00:00Z,28.8332,-90.8320,1020.67,11111222 
WAVCIS,ioos:station:WAVCIS:CSI15:1,2011-02-11T08:00:00Z,28.8332,-90.8320,1020.97,11111222 
WAVCIS,ioos:station:WAVCIS:CSI15:1,2011-02-11T09:00:00Z,28.8332,-90.8320,1021.33,11111222 
WAVCIS,ioos:station:WAVCIS:CSI15:1,2011-02-11T10:00:00Z,28.8332,-90.8320,1021.23,11111222 
WAVCIS,ioos:station:WAVCIS:CSI15:1,2011-02-11T11:00:00Z,28.8332,-90.8320,1021.77,11111222 
WAVCIS,ioos:station:WAVCIS:CSI15:1,2011-02-11T12:00:00Z,28.8332,-90.8320,1022.52,11111222 
WAVCIS,ioos:station:WAVCIS:CSI15:1,2011-02-11T13:00:00Z,28.8332,-90.8320,1023.25,11111222 
WAVCIS,ioos:station:WAVCIS:CSI15:1,2011-02-11T14:00:00Z,28.8332,-90.8320,1023.67,11111222 
WAVCIS,ioos:station:WAVCIS:CSI15:1,2011-02-11T15:00:00Z,28.8332,-90.8320,1024.62,11111222 
WAVCIS,ioos:station:WAVCIS:CSI15:1,2011-02-11T16:00:00Z,28.8332,-90.8320,1025.14,11111222 
WAVCIS,ioos:station:WAVCIS:CSI15:1,2011-02-11T17:00:00Z,28.8332,-90.8320,1025.19,11111222 
WAVCIS,ioos:station:WAVCIS:CSI15:1,2011-02-11T18:00:00Z,28.8332,-90.8320,1024.82,11111222 
WAVCIS,ioos:station:WAVCIS:CSI15:1,2011-02-11T19:00:00Z,28.8332,-90.8320,1023.77,11111222 
WAVCIS,ioos:station:WAVCIS:CSI15:1,2011-02-11T20:00:00Z,28.8332,-90.8320,1023.39,11111222 
WAVCIS,ioos:station:WAVCIS:CSI15:1,2011-02-11T21:00:00Z,28.8332,-90.8320,1023.11,11111222 
WAVCIS,ioos:station:WAVCIS:CSI15:1,2011-02-11T22:00:00Z,28.8332,-90.8320,1022.87,11111222 